Abilene, TX

9:28 AM CST on January 22, 2018 (GMT -0600)
Abilene Regional

Weather History for KABI - December, 2013

Change the Weather History Date:

Monday, December 9, 2013

  Actual Average Record
Temperature  
Mean Temperature 27 °F 46 °F  
Max Temperature 33 °F 58 °F 80 °F (1929)
Min Temperature 20 °F 34 °F 11 °F (1898)
Degree Days  
Heating Degree Days 38 19  
Month to date heating degree days 225 161  
Since 1 July heating degree days 697 594  
Cooling Degree Days 0 0  
Month to date cooling degree days 1 0  
Year to date cooling degree days 2723 2408  
Moisture  
Dew Point 24 °F    
Average Humidity 87    
Maximum Humidity 92    
Minimum Humidity 81    
Precipitation  
Precipitation T in 0.04 in 3.80 in (1911)
Month to date precipitation 0.20 0.36  
Year to date precipitation 22.28 23.95  
Sea Level Pressure  
Sea Level Pressure 30.24 in    
Wind  
Wind Speed 9 mph (North)    
Max Wind Speed 16 mph    
Max Gust Speed 20 mph    
Visibility 4 miles    
Events Fog , Rain , Snow    
T = Trace of Precipitation, MM = Missing Value Source: NWS Daily Summary

Daily Weather History Graph

Daily Weather History Graph

Search for Another Location

Airport or City:

Trip Planner

Search our weather history database for the weather conditions in past years. The results will help you decide how hot, cold, wet, or windy it might be!

Date:

Astronomy

Dec. 09, 2013 Rise Set
Actual Time 7:28 AM CST 5:33 PM CST
Civil Twilight 7:01 AM CST 6:00 PM CST
Nautical Twilight 6:31 AM CST 6:31 PM CST
Astronomical Twilight 6:01 AM CST 7:01 PM CST
Moon 12:42 PM CST (12/9) 12:07 AM CST (12/9)
Length of Visible Light 10h 58m
Length of Day
10h 04m
Waxing Crescent, 51% of the Moon is Illuminated
Dec 9
Waxing Crescent
Dec 17
Full
Dec 25
Last Quarter
Jan 1
New
Jan 7
First Quarter

Hourly Weather History & Observations

Time (CST) Temp. Windchill Dew Point Humidity Pressure Visibility Wind Dir Wind Speed Gust Speed Precip Events Conditions
12:52 AM 32.0 °F 25.6 °F 28.0 °F 85% 30.05 in 10.0 mi South 6.9 mph - N/A   Clear
1:52 AM 32.0 °F - 28.0 °F 85% 30.06 in 10.0 mi Calm Calm - N/A   Clear
2:52 AM 32.0 °F - 28.9 °F 88% 30.07 in 10.0 mi Calm Calm - N/A   Clear
3:52 AM 26.1 °F 21.9 °F 23.0 °F 88% 30.10 in 8.0 mi West 3.5 mph - N/A   Clear
4:33 AM 28.4 °F 20.4 °F 26.6 °F 93% 30.10 in 9.0 mi NW 8.1 mph - N/A   Partly Cloudy
4:52 AM 28.0 °F 18.6 °F 26.1 °F 92% 30.13 in 9.0 mi NW 10.4 mph - N/A   Mostly Cloudy
5:02 AM 28.4 °F 19.1 °F 26.6 °F 93% 30.11 in 7.0 mi NNW 10.4 mph - N/A   Mostly Cloudy
5:52 AM 28.0 °F 17.0 °F 26.1 °F 92% 30.15 in 6.0 mi NNW 13.8 mph - N/A   Overcast
6:32 AM 26.6 °F 15.7 °F 24.8 °F 93% 30.15 in 0.5 mi North 12.7 mph - N/A Fog Light Freezing Fog
6:52 AM 27.0 °F 16.7 °F 25.0 °F 92% 30.19 in 0.5 mi North 11.5 mph - N/A Fog Light Freezing Fog
7:52 AM 26.1 °F 16.2 °F 25.0 °F 96% 30.21 in 0.2 mi NNE 10.4 mph - N/A Fog Light Freezing Fog
8:41 AM 26.6 °F 17.5 °F 24.8 °F 93% 30.19 in 0.5 mi NE 9.2 mph - N/A Fog Light Freezing Fog
8:52 AM 26.1 °F 16.8 °F 25.0 °F 96% 30.22 in 0.5 mi NE 9.2 mph - N/A Fog Light Freezing Fog
9:41 AM 26.6 °F 18.2 °F 24.8 °F 93% 30.19 in 0.2 mi NNE 8.1 mph - N/A Fog Light Freezing Fog
9:52 AM 26.1 °F 16.2 °F 25.0 °F 96% 30.24 in 0.5 mi NNE 10.4 mph - N/A Fog Light Freezing Fog
10:04 AM 26.6 °F 18.2 °F 24.8 °F 93% 30.21 in 0.2 mi NE 8.1 mph - N/A Fog Light Freezing Fog
10:43 AM 26.6 °F 16.2 °F 24.8 °F 93% 30.23 in 0.5 mi ENE 11.5 mph - N/A Fog Light Freezing Fog
10:52 AM 27.0 °F 18.7 °F 25.0 °F 92% 30.26 in 0.2 mi NE 8.1 mph - N/A   Overcast
11:07 AM 26.6 °F 19.1 °F 26.6 °F 100% 30.23 in 0.2 mi NNE 6.9 mph - N/A Fog Light Freezing Fog
11:52 AM 27.0 °F 17.3 °F 25.0 °F 92% 30.25 in 0.2 mi NNE 10.4 mph - N/A Fog Light Freezing Fog
12:03 PM 26.6 °F 18.2 °F 24.8 °F 93% 30.20 in 1.0 mi NNE 8.1 mph - N/A   Overcast
12:11 PM 26.6 °F 16.8 °F 24.8 °F 93% 30.20 in 0.5 mi NNE 10.4 mph - N/A Fog Light Freezing Fog
12:21 PM 26.6 °F 17.5 °F 24.8 °F 93% 30.20 in 0.1 mi NNE 9.2 mph - N/A Fog Light Freezing Fog
12:52 PM 27.0 °F 18.7 °F 25.0 °F 92% 30.23 in 0.1 mi NNE 8.1 mph - N/A Fog Light Freezing Fog
1:00 PM 26.6 °F 16.2 °F 24.8 °F 93% 30.20 in 0.8 mi North 11.5 mph - N/A   Mist
1:07 PM 26.6 °F 16.2 °F 24.8 °F 93% 30.20 in 0.8 mi North 11.5 mph - N/A Rain Light Freezing Rain
1:14 PM 26.6 °F 19.1 °F 24.8 °F 93% 30.19 in 0.1 mi North 6.9 mph - N/A Fog , Snow Light Snow
1:33 PM 26.6 °F 18.2 °F 24.8 °F 93% 30.19 in 0.1 mi North 8.1 mph - N/A Fog , Rain Light Freezing Rain
1:52 PM 27.0 °F 18.0 °F 25.0 °F 92% 30.22 in 0.1 mi North 9.2 mph - N/A Fog , Rain Light Freezing Rain
1:59 PM 26.6 °F 18.2 °F 24.8 °F 93% 30.19 in 1.0 mi North 8.1 mph - N/A Rain Light Freezing Rain
2:21 PM 26.6 °F 17.5 °F 24.8 °F 93% 30.19 in 1.0 mi NNE 9.2 mph - N/A Rain Light Freezing Rain
2:52 PM 26.1 °F 15.6 °F 24.1 °F 92% 30.23 in 1.0 mi North 11.5 mph - N/A Rain Light Freezing Rain
2:59 PM 26.6 °F 16.8 °F 24.8 °F 93% 30.20 in 2.0 mi North 10.4 mph - N/A Rain Light Freezing Rain
3:16 PM 26.6 °F 16.8 °F 24.8 °F 93% 30.20 in 2.0 mi North 10.4 mph - N/A   Overcast
3:52 PM 26.1 °F 15.6 °F 24.1 °F 92% 30.26 in 3.0 mi North 11.5 mph - N/A   Overcast
4:14 PM 26.6 °F 16.2 °F 24.8 °F 93% 30.22 in 2.5 mi North 11.5 mph - N/A   Overcast
4:52 PM 26.1 °F 16.8 °F 24.1 °F 92% 30.28 in 2.5 mi North 9.2 mph - N/A   Overcast
5:41 PM 26.6 °F 15.7 °F 24.8 °F 93% 30.27 in 3.0 mi NNW 12.7 mph - N/A   Overcast
5:52 PM 26.1 °F 15.0 °F 23.0 °F 88% 30.31 in 3.0 mi North 12.7 mph - N/A   Overcast
6:44 PM 24.8 °F 12.9 °F 23.0 °F 93% 30.31 in 4.0 mi North 13.8 mph - N/A   Light Freezing Drizzle
6:52 PM 25.0 °F 12.6 °F 23.0 °F 92% 30.35 in 4.0 mi North 15.0 mph - N/A   Light Freezing Drizzle
7:52 PM 25.0 °F 14.8 °F 21.9 °F 88% 30.39 in 6.0 mi North 10.4 mph - N/A   Light Freezing Drizzle
7:59 PM 24.8 °F 14.6 °F 21.2 °F 86% 30.35 in 5.0 mi North 10.4 mph - N/A   Overcast
8:52 PM 24.1 °F 12.0 °F 21.9 °F 91% 30.43 in 6.0 mi North 13.8 mph - N/A   Overcast
9:19 PM 24.8 °F 14.6 °F 21.2 °F 86% 30.38 in 8.0 mi North 10.4 mph - N/A   Overcast
9:52 PM 24.1 °F 13.7 °F 19.9 °F 84% 30.45 in 9.0 mi North 10.4 mph - N/A   Overcast
10:40 PM 21.2 °F 13.6 °F 19.4 °F 93% 30.41 in 9.0 mi North 5.8 mph - N/A   Scattered Clouds
10:52 PM 21.0 °F 14.6 °F 18.0 °F 88% 30.46 in 9.0 mi NNW 4.6 mph - N/A   Partly Cloudy
11:52 PM 19.9 °F 11.1 °F 17.1 °F 89% 30.46 in 9.0 mi NW 6.9 mph - N/A   Clear